VE7ALB-8 Weather Reports


Display with metric or nautical units.
time (UTC)temp
F
wind
direction
speed
MPH
gust
MPH
rain 1hr
in
rain 24hr
in
rain mn
in
humidity
%
barometer
mb
20260504035019 51 342 9.0 12.0 0.00 0.00 0.00 46 921.8
20260504034021 51 322 9.0 12.0 0.00 0.00 0.00 46 921.5
20260504033037 51 3 8.0 11.0 0.00 0.00 0.00 47 921.3
20260504032026 51 337 9.0 12.0 0.00 0.00 0.00 47 921.3
20260504031049 51 18 9.0 16.0 0.00 0.00 0.00 47 921.2
20260504030030 51 327 9.0 13.0 0.00 0.00 0.00 47 921.1
20260504025034 52 354 10.0 13.0 0.00 0.00 0.00 46 921.1
20260504024018 53 355 10.0 15.0 0.00 0.00 0.00 46 921.3
20260504023019 53 346 14.0 20.0 0.00 0.00 0.00 45 921.0
20260504022016 54 7 16.0 20.0 0.00 0.00 0.00 43 920.9
20260504021031 55 357 13.0 17.0 0.00 0.00 0.00 43 920.8
20260504020028 55 7 15.0 23.0 0.00 0.00 0.00 43 920.8
20260504015030 56 341 12.0 17.0 0.00 0.00 0.00 44 920.6
20260504014032 57 346 15.0 20.0 0.00 0.00 0.00 42 920.1
20260504013018 58 323 16.0 20.0 0.00 0.00 0.00 37 919.8
20260504012018 59 332 16.0 21.0 0.00 0.00 0.00 36 919.8
20260504011020 59 311 18.0 28.0 0.00 0.00 0.00 36 919.8
20260504010023 58 322 16.0 19.0 0.00 0.00 0.00 39 919.6
20260504005040 60 320 15.0 22.0 0.00 0.00 0.00 37 919.6
20260504004016 60 325 16.0 22.0 0.00 0.00 0.00 37 919.6
20260504003018 60 336 15.0 21.0 0.00 0.00 0.00 36 919.8
20260504002020 60 317 14.0 21.0 0.00 0.00 0.00 36 919.8
20260504001022 60 316 13.0 17.0 0.00 0.00 0.00 37 919.8
20260504000022 59 323 10.0 15.0 0.00 0.00 0.00 38 919.8
20260503235042 58 328 10.0 15.0 0.00 0.00 0.00 38 919.8
20260503234100 58 314 14.0 20.0 0.00 0.00 0.00 37 919.6
20260503233021 58 337 14.0 19.0 0.00 0.00 0.00 38 919.6
20260503232024 58 328 14.0 18.0 0.00 0.00 0.00 38 919.6
20260503231020 59 315 13.0 18.0 0.00 0.00 0.00 37 919.6
20260503230017 59 320 16.0 19.0 0.00 0.00 0.00 37 919.6
20260503225040 60 337 15.0 18.0 0.00 0.00 0.00 36 919.5
20260503224018 61 347 15.0 21.0 0.00 0.00 0.00 35 919.3
20260503223019 61 340 17.0 23.0 0.00 0.00 0.00 34 919.1
20260503222021 62 1 16.0 21.0 0.00 0.00 0.00 34 919.1
20260503221024 63 332 17.0 23.0 0.00 0.00 0.00 33 919.0
20260503220020 64 2 16.0 21.0 0.00 0.00 0.00 31 918.8
20260503215017 65 11 16.0 20.0 0.00 0.00 0.00 31 918.8
20260503214021 67 316 16.0 27.0 0.00 0.00 0.00 30 918.6
20260503213018 68 3 14.0 18.0 0.00 0.00 0.00 29 918.6
20260503212020 66 331 15.0 20.0 0.00 0.00 0.00 31 918.5
20260503211022 66 336 16.0 22.0 0.00 0.00 0.00 31 918.5
20260503210018 68 345 16.0 19.0 0.00 0.00 0.00 30 918.6
20260503205016 68 334 16.0 21.0 0.00 0.00 0.00 30 918.3
20260503204017 68 314 16.0 25.0 0.00 0.00 0.00 32 918.3
20260503203019 68 311 15.0 26.0 0.00 0.00 0.00 32 918.3
20260503202022 67 302 15.0 18.0 0.00 0.00 0.00 32 918.3
20260503201045 68 313 15.0 21.0 0.00 0.00 0.00 31 918.4
20260503200027 68 305 13.0 18.0 0.00 0.00 0.00 32 918.5
20260503195029 69 316 14.0 22.0 0.00 0.00 0.00 30 918.3
20260503194032 70 315 14.0 18.0 0.00 0.00 0.00 30 918.3
20260503193016 69 323 14.0 18.0 0.00 0.00 0.00 30 918.3
20260503192018 68 311 17.0 22.0 0.00 0.00 0.00 31 918.4
20260503191020 68 315 16.0 24.0 0.00 0.00 0.00 32 918.5
20260503190036 69 341 11.0 16.0 0.00 0.00 0.00 34 918.4
20260503185026 68 329 14.0 20.0 0.00 0.00 0.00 35 918.3
20260503184027 68 324 14.0 20.0 0.00 0.00 0.00 36 918.5
20260503183024 67 307 16.0 21.0 0.00 0.00 0.00 37 918.5
20260503182021 67 336 16.0 20.0 0.00 0.00 0.00 37 918.6
20260503181018 67 322 16.0 21.0 0.00 0.00 0.00 36 918.5
20260503180020 67 328 17.0 29.0 0.00 0.00 0.00 36 918.3
20260503175045 67 337 17.0 24.0 0.00 0.00 0.00 36 918.6
20260503174020 67 318 16.0 20.0 0.00 0.00 0.00 36 918.6
20260503173021 67 317 17.0 23.0 0.00 0.00 0.00 36 918.6
20260503172045 67 310 14.0 21.0 0.00 0.00 0.00 36 918.6
20260503171026 67 290 13.0 16.0 0.00 0.00 0.00 37 918.7
20260503131156 50 290 6.0 7.0 0.00 0.00 0.00 57 919.7
20260503081044 45 238 8.0 9.0 0.00 0.00 0.00 79 920.6
20260503072024 47 231 8.0 9.0 0.00 0.00 0.00 71 921.0
20260503071048 48 238 8.0 11.0 0.00 0.00 0.00 69 921.0
20260503055030 49 237 8.0 10.0 0.00 0.00 0.00 64 921.6
20260503054032 49 244 7.0 9.0 0.00 0.00 0.00 64 921.6
20260503053015 50 249 7.0 8.0 0.00 0.00 0.00 62 921.8
20260503052017 50 235 7.0 8.0 0.00 0.00 0.00 61 921.8
20260503051021 51 225 9.0 10.0 0.00 0.00 0.00 61 921.9
20260503050036 51 225 8.0 8.0 0.00 0.00 0.00 61 922.0
20260503045018 51 220 7.0 9.0 0.00 0.00 0.00 61 922.0
20260503044036 51 222 7.0 8.0 0.00 0.00 0.00 61 922.1
20260503043018 51 220 7.0 7.0 0.00 0.00 0.00 59 922.1
20260503042020 51 222 6.0 7.0 0.00 0.00 0.00 59 922.0
20260503041022 51 225 5.0 5.0 0.00 0.00 0.00 59 922.0
20260503040024 51 216 4.0 5.0 0.00 0.00 0.00 57 922.0